This is the latest recevied weather packets stored in our database for station/object KI5NXU. If no packets are shown the sender has not sent any weather packets the latest 10 day(s).
| Time | Temp. | Humidity | Pressure | Rain* | Wind** | Luminosity | Snow |
|---|---|---|---|---|---|---|---|
| 1778034626 | 16.67° C | 76% | 1008.4 hPa | 0 mm | - | 0 W/m² | - |
| 1778034323 | 16.67° C | 76% | 1008.4 hPa | 0 mm | - | 0 W/m² | - |
| 1778034021 | 17.22° C | 76% | 1008.3 hPa | 0 mm | - | 0 W/m² | - |
| 1778033718 | 17.22° C | 76% | 1008.2 hPa | 0 mm | - | 0 W/m² | - |
| 1778033415 | 17.78° C | 75% | 1008.4 hPa | 0 mm | - | 0 W/m² | - |
| 1778033113 | 18.33° C | 74% | 1007.8 hPa | 0 mm | - | 0 W/m² | - |
| 1778032810 | 18.89° C | 74% | 1007.7 hPa | 0 mm | - | 0 W/m² | - |
| 1778032507 | 18.89° C | 73% | 1007.4 hPa | 0 mm | - | 0 W/m² | - |
| 1778032204 | 19.44° C | 72% | 1007.1 hPa | 0 mm | - | 0 W/m² | - |
| 1778031901 | 19.44° C | 71% | 1006.9 hPa | 0 mm | - | 0 W/m² | - |
| 1778031597 | 19.44° C | 70% | 1006.8 hPa | 0 mm | - | 0 W/m² | - |
| 1778031295 | 20° C | 70% | 1006.5 hPa | 0 mm | - | 0 W/m² | - |
| 1778030991 | 20° C | 70% | 1006.4 hPa | 0 mm | - | 0 W/m² | - |
| 1778030688 | 20.56° C | 69% | 1006.6 hPa | 0 mm | - | 0 W/m² | - |
| 1778030384 | 20.56° C | 68% | 1006.7 hPa | 0 mm | - | 0 W/m² | - |
| 1778030082 | 21.11° C | 67% | 1006.5 hPa | 0 mm | - | 2 W/m² | - |
| 1778029779 | 21.11° C | 66% | 1006.4 hPa | 0 mm | - | 4 W/m² | - |
| 1778029478 | 21.11° C | 65% | 1006.6 hPa | 0 mm | - | 8 W/m² | - |
| 1778029173 | 21.11° C | 65% | 1006.6 hPa | 0 mm | - | 13 W/m² | - |
| 1778028872 | 21.67° C | 64% | 1006.1 hPa | 0 mm | - | 20 W/m² | - |
| 1778028566 | 21.67° C | 63% | 1006 hPa | 0 mm | - | 30 W/m² | - |
| 1778028265 | 22.22° C | 63% | 1006.1 hPa | 0 mm | - | 38 W/m² | - |
| 1778027960 | 21.67° C | 63% | 1006 hPa | 0 mm | - | 49 W/m² | - |
| 1778027657 | 22.22° C | 63% | 1005.8 hPa | 0 mm | - | 46 W/m² | - |
| 1778027354 | 22.22° C | 62% | 1005.7 hPa | 0 mm | - | 55 W/m² | - |
* Rain latest hour (hover to see other rain measurements)
** Current wind speed in m/s (hover to see current wind gust speed)